Regional Weather Roundup
Issued by NWS

Home | Current Version | Previous Version | Text Only | Print | Product List | Glossary Off
Versions: 1 2 3 4 5 6 7 8 9 10 11 12 13 14 15 16 17 18 19 20 21 22 23 24 25 26 27 28 29 30 31 32 33 34 35 36 37 38 39 40 41 42 43 44 45 46 47 48 49 50

000
ASUS43 KBIS 180410
RWRND

NORTH DAKOTA REGIONAL WEATHER ROUNDUP
NATIONAL WEATHER SERVICE BISMARCK ND
1100 PM CDT WED SEP 17 2014

NOTE: "FAIR" INDICATES FEW OR NO CLOUDS BELOW 12,000 FEET WITH NO
SIGNIFICANT WEATHER AND/OR OBSTRUCTIONS TO VISIBILITY.


NDZ001>003-009>011-017-180500-
NORTHWEST NORTH DAKOTA

CITY           SKY/WX    TMP DP  RH WIND       PRES   REMARKS
WILLISTON      CLEAR     63  45  51 SE3       29.91S
MINOT          CLEAR     50  46  86 E8        29.98S
MINOT AFB      CLEAR     49  48  93 SE10      29.98S
$$

NDZ018>021-031>035-040>046-180500-
SOUTHWEST NORTH DAKOTA

CITY           SKY/WX    TMP DP  RH WIND       PRES   REMARKS
BISMARCK       CLEAR     54  48  80 NE6       29.99R
DICKINSON      CLEAR     55  47  74 SE12      29.94S
GARRISON         N/A     56  52  86 E9        29.97S
HETTINGER ARPT CLEAR     54  48  80 E8        29.97S
$$

NDZ004>008-012>016-024-026-027-054-180500-
NORTHEAST NORTH DAKOTA

CITY           SKY/WX    TMP DP  RH WIND       PRES   REMARKS
GRAND FORKS    CLEAR     48  43  82 NE6       30.05S
GRND FRKS AFB  CLEAR     46  44  92 E5        30.06S
DEVILS LAKE    CLEAR     46  39  76 E9        30.02F
$$

NDZ022-023-025-028>030-036>039-047>053-180500-
SOUTHEAST NORTH DAKOTA

CITY           SKY/WX    TMP DP  RH WIND       PRES   REMARKS
FARGO          CLEAR     52  48  86 NE3       30.02R
JAMESTOWN      CLEAR     51  48  89 E7        30.01F
$$



USA.gov is the U.S. government's official web portal to all federal, state and local government web resources and services.